Weather History for Ashtabula, OH

Change the Weather History Date:

Saturday, March 2, 2013

  Actual Average (KYNG) Record (KYNG)
Temperature  
Mean Temperature 24 °F 32 °F  
Max Temperature 26 °F 40 °F 71 °F (1991)
Min Temperature 21 °F 23 °F -10 °F (1980)
Degree Days  
Heating Degree Days 42 33  
Month to date heating degree days 66  
Since 1 July heating degree days 4714  
Cooling Degree Days 0 0  
Month to date cooling degree days 0  
Year to date cooling degree days 0  
Moisture  
Dew Point 18 °F    
Average Humidity 77    
Maximum Humidity 81    
Minimum Humidity 74    
Precipitation  
Precipitation 0.01 in 0.08 in 0.59 in (2012)
Month to date precipitation 0.17  
Year to date precipitation 4.87  
Snow  
Snow 0.00 in 0.50 in - ()
Month to date snowfall 0.9  
Since 1 July snowfall 49.7  
Snow Depth -    
Sea Level Pressure  
Sea Level Pressure 29.99 in    
Wind  
Wind Speed 7 mph (NNW)    
Max Wind Speed 9 mph    
Max Gust Speed 17 mph    
Visibility 8 miles    
Events Snow    
T = Trace of Precipitation, MM = Missing Value Source: NWS Daily Summary

Daily Weather History Graph

Daily Weather History Graph

Search for Another Location

Airport:

Trip Planner

Search our weather history database for the weather conditions in past years. The results will help you decide how hot, cold, wet, or windy it might be!

Date:

Astronomy

Mar. 02, 2013 Rise Set
Actual Time 6:55 AM EST 6:14 PM EST
Civil Twilight 6:27 AM EST 6:42 PM EST
Nautical Twilight 5:55 AM EST 7:14 PM EST
Astronomical Twilight 5:23 AM EST 7:47 PM EST
Moon 11:58 PM EST (3/2) 9:17 AM EST (3/2)
Length of Visible Light 12h 14m
Length of Day
11h 18m
Waning Gibbous, 74% of the Moon is Illuminated
Mar 2
Waning Gibbous
Mar 4
Last Quarter
Mar 11
New
Mar 19
First Quarter
Mar 27
Full

Hourly Weather History & Observations

Time (EST) Temp. Windchill Dew Point Humidity Pressure Visibility Wind Dir Wind Speed Gust Speed Precip Events Conditions
12:53 AM 23.0 °F 13.1 °F 17.1 °F 78% 30.02 in 10.0 mi NNW 9.2 mph - N/A   Overcast
1:53 AM 23.0 °F 14.7 °F 18.0 °F 81% 30.01 in 10.0 mi North 6.9 mph - N/A   Overcast
2:53 AM 23.0 °F 17.0 °F 17.1 °F 78% 30.00 in 10.0 mi NNE 4.6 mph - N/A   Overcast
3:53 AM 24.1 °F 19.7 °F 17.1 °F 75% 29.99 in 10.0 mi Variable 3.5 mph - N/A   Overcast
4:53 AM 24.1 °F 18.2 °F 17.1 °F 75% 29.99 in 10.0 mi NNW 4.6 mph - N/A   Overcast
5:53 AM 24.1 °F 19.7 °F 17.1 °F 75% 29.99 in 9.0 mi WNW 3.5 mph - 0.00 in Snow Light Snow
6:53 AM 24.1 °F 18.2 °F 17.1 °F 75% 30.00 in 10.0 mi NNW 4.6 mph - 0.00 in   Overcast
7:53 AM 23.0 °F 14.7 °F 16.0 °F 74% 30.00 in 6.0 mi North 6.9 mph - 0.00 in   Haze
8:53 AM 23.0 °F 17.0 °F 17.1 °F 78% 30.00 in 7.0 mi North 4.6 mph - 0.00 in Snow Light Snow
9:53 AM 23.0 °F 13.9 °F 17.1 °F 78% 30.01 in 3.0 mi NNW 8.1 mph - 0.00 in Snow Light Snow
10:24 AM 21.2 °F 11.7 °F 15.8 °F 80% 29.97 in 5.0 mi North 8.1 mph - 0.00 in   Haze
10:53 AM 21.9 °F 12.5 °F 16.0 °F 78% 30.01 in 10.0 mi North 8.1 mph - 0.00 in   Overcast
11:30 AM 21.2 °F 13.6 °F 15.8 °F 80% 29.97 in 10.0 mi NNW 5.8 mph - N/A   Overcast
11:53 AM 21.9 °F 13.4 °F 16.0 °F 78% 30.02 in 6.0 mi North 6.9 mph - N/A   Haze
12:53 PM 21.9 °F 13.4 °F 16.0 °F 78% 30.01 in 6.0 mi NNW 6.9 mph - 0.00 in   Haze
1:53 PM 24.1 °F 15.2 °F 17.1 °F 75% 29.99 in 10.0 mi NNW 8.1 mph - N/A   Overcast
2:53 PM 24.1 °F 15.2 °F 17.1 °F 75% 29.99 in 10.0 mi North 8.1 mph - N/A   Overcast
3:53 PM 25.0 °F 19.3 °F 18.0 °F 75% 29.98 in 9.0 mi NW 4.6 mph - N/A   Overcast
4:53 PM 25.0 °F 16.3 °F 19.0 °F 78% 29.98 in 7.0 mi NW 8.1 mph - 0.00 in   Overcast
5:53 PM 25.0 °F 17.1 °F 19.0 °F 78% 29.98 in 8.0 mi NW 6.9 mph - N/A   Overcast
6:07 PM 24.8 °F 17.9 °F 19.4 °F 80% 29.95 in 8.0 mi NNW 5.8 mph - N/A   Overcast
6:44 PM 24.8 °F 16.1 °F 19.4 °F 80% 29.95 in 8.0 mi NNW 8.1 mph - 0.00 in Snow Light Snow
6:53 PM 25.0 °F 18.1 °F 19.9 °F 81% 29.99 in 8.0 mi NNW 5.8 mph - 0.00 in Snow Light Snow
8:53 PM 26.1 °F 18.4 °F 19.0 °F 75% 30.00 in 6.0 mi NNW 6.9 mph 17.3 mph 0.00 in Snow Light Snow
9:53 PM 25.0 °F 15.5 °F 19.0 °F 78% 30.00 in 4.0 mi NNW 9.2 mph 17.3 mph 0.00 in Snow Light Snow
10:20 PM 24.8 °F 15.3 °F 19.4 °F 80% 29.96 in 5.0 mi North 9.2 mph - 0.00 in Snow Light Snow
10:46 PM 24.8 °F 15.3 °F 17.6 °F 74% 29.96 in 7.0 mi North 9.2 mph 17.3 mph 0.00 in Snow Light Snow
10:53 PM 25.0 °F 15.5 °F 18.0 °F 75% 30.00 in 9.0 mi North 9.2 mph 17.3 mph 0.00 in   Overcast
11:44 PM 24.8 °F 16.1 °F 17.6 °F 74% 29.96 in 2.5 mi North 8.1 mph - 0.00 in Snow Light Snow
11:53 PM 24.1 °F 19.7 °F 18.0 °F 77% 29.99 in 2.5 mi North 3.5 mph - 0.01 in Snow Light Snow